Simultaneous Nadir Overpasses (SNOs) Predictions

Prediction of SNOs between GOES-17 and AQUA Satellite Orbit:

Table of predicted SNOs for the next 14.0 days since TLE Epoch: 9/10/2022
Index Date Time (GOES-17) GOES-17 Lat,Lon AQUA Lat,Lon Distance(km) Time Diff (sec)
1 09/10/2022 10:44:47 0.06,-137.31 -0.28,-135.81 171.92 80
2 09/10/2022 23:03:23 -0.06,-137.31 -0.82,-140.96 415.27 80
3 09/12/2022 22:50:41 -0.06,-137.31 -0.15,-137.87 63.16 80
4 09/14/2022 22:40:38 -0.06,-137.31 0.48,-134.78 288.65 80
5 09/15/2022 10:59:06 0.06,-137.32 0.58,-139.90 292.75 80
6 09/17/2022 10:49:03 0.05,-137.31 -0.07,-136.81 58.07 80
7 09/19/2022 10:36:20 0.05,-137.30 -0.73,-133.71 408.21 80
8 09/19/2022 22:54:56 -0.04,-137.28 -0.35,-138.87 179.58 80
9 09/21/2022 22:44:52 -0.03,-137.26 0.27,-135.77 170.09 80
10 09/22/2022 11:03:20 0.03,-137.27 0.79,-140.89 411.77 80
